Location: Appleton
(44.2618°N, 88.4157°W)
Time: 16:24:23
(UTC+00:00)

A-11 Canister half - All Passes

Search period start: 26 February 2021 00:00
Search period end: 08 March 2021 00:00
Orbit: 1516 x 1684 km, 47.2° (Epoch: 26 February)

Date Brightness Start Highest point End Pass type
(mag) Time Alt. Az. Time Alt. Az. Time Alt. Az.
26 Feb - 01:08:20 10° W 01:15:22 24° SW 01:22:16 10° S visible
26 Feb - 14:25:29 10° SSE 14:30:18 14° ESE 14:35:05 10° E daylight
26 Feb - 16:23:55 10° SSW 16:33:31 50° SE 16:42:57 10° ENE daylight
26 Feb - 18:28:02 10° WSW 18:38:13 86° NNW 18:48:05 10° ENE daylight
26 Feb - 20:33:46 10° W 20:43:48 77° N 20:53:28 10° E daylight
26 Feb - 22:39:10 10° WNW 22:48:55 69° SSW 22:58:17 10° SE daylight
27 Feb - 00:45:13 10° W 00:52:34 25° SW 00:59:45 10° S visible
27 Feb - 14:03:25 10° SSE 14:07:30 13° ESE 14:11:33 10° E daylight
27 Feb - 16:01:07 10° SSW 16:10:38 47° SE 16:19:58 10° ENE daylight
27 Feb - 18:05:04 10° WSW 18:15:15 88° NNW 18:25:09 10° ENE daylight
27 Feb - 20:10:46 10° W 20:20:50 76° N 20:30:32 10° E daylight
27 Feb - 22:16:13 10° WNW 22:26:01 72° SSW 22:35:26 10° SE daylight
28 Feb - 00:22:08 10° WNW 00:29:45 27° SW 00:37:12 10° S visible
28 Feb - 13:41:33 10° SE 13:44:41 12° ESE 13:47:49 10° ESE daylight
28 Feb - 15:38:20 10° SSW 15:47:44 45° SE 15:57:01 10° ENE daylight
28 Feb - 17:42:05 10° WSW 17:52:18 90° NE 18:02:14 10° ENE daylight
28 Feb - 19:47:45 10° W 19:57:51 76° N 20:07:35 10° E daylight
28 Feb - 21:53:14 10° WNW 22:03:06 75° SSW 22:12:35 10° SE daylight
28 Feb - 23:59:02 10° WNW 00:06:56 29° SW 00:14:37 10° S visible
01 Mar - 13:20:18 10° SE 13:21:54 10° ESE 13:23:30 10° ESE daylight
01 Mar - 15:15:34 10° SSW 15:24:51 43° SE 15:34:02 10° ENE daylight
01 Mar - 17:19:07 10° WSW 17:29:20 88° SSE 17:39:17 10° ENE daylight
01 Mar - 19:24:46 10° W 19:34:52 75° N 19:44:38 10° E daylight
01 Mar - 21:30:16 10° WNW 21:40:12 77° SSW 21:49:43 10° ESE daylight
01 Mar - 23:35:59 10° WNW 23:44:07 31° SW 23:52:01 10° S daylight
02 Mar - 14:52:48 10° SSW 15:01:59 40° SE 15:11:03 10° ENE daylight
02 Mar - 16:56:11 10° WSW 17:06:22 86° SSE 17:16:21 10° ENE daylight
02 Mar - 19:01:45 10° W 19:11:54 75° N 19:21:42 10° E daylight
02 Mar - 21:07:17 10° WNW 21:17:16 80° SSW 21:26:51 10° ESE daylight
02 Mar - 23:12:56 10° WNW 23:21:17 33° SW 23:29:23 10° SSE daylight
03 Mar - 14:30:04 10° SSW 14:39:06 38° SE 14:48:03 10° ENE daylight
03 Mar - 16:33:13 10° WSW 16:43:25 84° SSE 16:53:26 10° ENE daylight
03 Mar - 18:38:45 10° W 18:48:54 75° N 18:58:44 10° E daylight
03 Mar - 20:44:19 10° WNW 20:54:20 82° SSW 21:03:57 10° ESE daylight
03 Mar - 22:49:54 10° WNW 22:58:27 36° SW 23:06:45 10° SSE daylight
04 Mar - 14:07:22 10° SSW 14:16:14 36° SE 14:25:03 10° ENE daylight
04 Mar - 16:10:17 10° WSW 16:20:28 81° SSE 16:30:29 10° ENE daylight
04 Mar - 18:15:45 10° W 18:25:56 75° N 18:35:48 10° E daylight
04 Mar - 20:21:21 10° WNW 20:31:24 85° SSW 20:41:05 10° ESE daylight
04 Mar - 22:26:52 10° WNW 22:35:36 38° SW 22:44:04 10° SSE daylight
05 Mar - 13:44:40 10° SSW 13:53:22 34° SE 14:02:01 10° ENE daylight
05 Mar - 15:47:20 10° WSW 15:57:31 79° SSE 16:07:33 10° ENE daylight
05 Mar - 17:52:45 10° W 18:02:56 75° N 18:12:50 10° E daylight
05 Mar - 19:58:22 10° WNW 20:08:27 87° SSW 20:18:11 10° ESE daylight
05 Mar - 22:03:50 10° WNW 22:12:45 40° SW 22:21:23 10° SSE daylight
06 Mar - 13:21:59 10° S 13:30:30 32° SE 13:38:59 10° ENE daylight
06 Mar - 15:24:25 10° SW 15:34:34 77° SSE 15:44:36 10° ENE daylight
06 Mar - 17:29:45 10° W 17:39:57 76° N 17:49:53 10° E daylight
06 Mar - 19:35:23 10° WNW 19:45:31 89° SSW 19:55:16 10° ESE daylight
06 Mar - 21:40:49 10° WNW 21:49:54 43° SW 21:58:40 10° SSE daylight
07 Mar - 12:59:21 10° S 13:07:39 30° SE 13:15:56 10° ENE daylight
07 Mar - 15:01:30 10° SW 15:11:38 74° SSE 15:21:39 10° ENE daylight
07 Mar - 17:06:45 10° W 17:16:58 76° N 17:26:56 10° E daylight
07 Mar - 19:12:24 10° WNW 19:22:34 89° NNE 19:32:21 10° ESE daylight
07 Mar - 21:17:49 10° WNW 21:27:02 45° SW 21:35:57 10° SSE daylight
07 Mar - 23:27:15 10° WSW 23:29:55 11° WSW 23:32:32 10° SW daylight
